Location: Newark
(12.4436°N, 0.6167°W)
Time: 21:01:32
(UTC+00:00)

Transit 2A - Pass Details

Date: 17 December 2019
Orbit: 601 x 958 km, 66.7° (Epoch: 28 January)

Event Time Altitude Azimuth Distance (km) Brightness Sun altitude
Rises 04:22:10 0° 206° (SSW) 3,318 9.2 -26.8°
Enters shadow 04:23:53 - 208° (SSW) 2,655 8.7 -26.4°
Reaches altitude 10° 04:24:44 10° 209° (SSW) 2,329 - -26.2°
Maximum altitude 04:29:58 64° 290° (WNW) 798 - -25.0°
Exits shadow 04:34:30 11° 12° (NNE) 2,024 8.1 -24.0°
Drops below altitude 10° 04:34:42 10° 12° (NNE) 2,104 8.2 -23.9°
Sets 04:36:56 0° 16° (NNE) 2,973 9.0 -23.4°
